PRÉPARATION DES VOLS

Pour bien préparer vos sorties, pensez à télécharger la fiche technique de votre avion, la check-list, le manuel de vol, le devis de centrage ou encore un modèle de Log de Nav.

 

Type : 2 places train classique

Moteur : Continental 90 cv.

Performances : 140 km/h

Type : 2/3 places en instruction & entraînement (devis de centrage).

Moteur : Lycoming 4 cyl. à plat, 108 cv.

Performances : 180 km/h

Autonomie : 4 h soit environ 720 km franchissables.

Avionique : 1 radio com Bendix/King, 1 VOR, 1 transpondeur.

Type : 3/4 places instruction, entraînement, voyage.

Moteur : Lycoming 4 cyl. à plat, 120 cv.

Performances : 190 km/h

Autonomie : 4 h soit environ 760 km franchissables.

Avionique : 1 radio com Bendix/King, 1 VOR, 1 transpondeur mode S, intercom 2 voies type.

 

Type : 3/4 places instruction, entraînement, voyage.

Moteur : Lycoming 4 cyl. à plat, 120 cv.

Performances : 190 km/h

Autonomie : 4 h soit environ 760 km franchissables.

Avionique : 1 radio com Bendix/King, 1 VOR, 1 transpondeur mode S, intercom 2 voies type.

 

Type : 4 places, pour entraînement et voyage.

Moteur : Robin Lycoming 4 cyl. à plat, 160 cv.

Performances : 206 km/h

Autonomie : 2 h 50 min soit environ 580 km de distance franchissable.

Avionique : 1 radio com Bendix/King, 1 VOR, 1 transpondeur mode S, intercom 4 voies.

 

 

 

 

 

 

 

Type : 4 places, avion de voyage

Moteur : Lycoming 4 cylindres à plat, 180CV

Vitesse de croisière : 225 km/h

Autonomie : 4h

Avionique : Garmin GNS 430, 1 VOR, 1 transpondeur mode S

 

Automne 2023…

Télécharger l’aide mémoire de la radio GTR 225A

Télécharger l’aide mémoire de la radio GNC 255A

Télécharger le dossier de préparation de vol

Télécharger un log de nav

Log 1

Cliquez sur le formulaire pour le télécharger

*Notice d’utilisation*

Ce log de Nav permet d’avoir une partie Navigation et une partie déroutement. Il comprends également une gestion du carburant.
Il tient aussi bien sur une planchette A4 ou A5 en pliant la feuille en deux et en découpant la partie pointillé. A la suite, il suffit de plier chaque bords découpés.
Les parties Nav/Déroutement peuvent ainsi être disponible en rabattant la feuille.
Bons vols à tous !
Guillaume

Log 2

Cliquez sur le formulaire pour le télécharger

Log_1*Notice d’utilisation*

Ce Log de Nav a été optimisé pour rendre les calculs automatiques sous Excel. Indiquez simplement vos points de report, les altitudes et les distances en NM. La feuille calcule alors le temps sans vent pour chaque étape et donne le total, qu’elle convertit en heure-minutes. Elle calcule également la distance totale et la convertit en kilomètres. Enfin, elle affiche le résultat du devis carburant, calculé automatiquement par le 2ème feuillet. Vous pouvez également inscrire préalablement les fréquences Radio et Nav. Les autres cases sont à remplir pendant le vol : date, top départ, heure estimée (grisée), heure réelle,horamètre, Atis…
Bons vols à tous !
Guillaume

Log 3

Cliquez sur le formulaire pour le télécharger

Log_2

Log 4

 Cliquez sur le formulaire pour le télécharger

Log_3

L’alphabet Morse et l’alphabet international

Alphabet International

Nos coordonnées

Aéroclub Renault

Aérodrome de Chavenay

78450 Chavenay-Villepreux

telephone

Atis

Télécharger la VAC LFPX

 

Télécharger le calcul de centrage

Télécharger la feuille ATIS

Télécharger le mémo VFR 2020-2021

 

Télécharger le formulaire de prorogation SEP

METARS / TAF de Toussus, Evreux, Orly et Roissy

Toussus

LFPN 231900Z AUTO 20017KT 9999 BKN030 BKN060 BKN074 14/08 Q1005 BECMG 20015G30KT

TAF TAF AMD LFPN 132015Z 1320/1420 17005KT 5000 BKN025 TEMPO 1320/1324 2000 BR OVC008 PROB30 TEMPO 1320/1324 0800 FG OVC002

Evreux

LFOE 232000Z AUTO 20018KT 9999 OVC020 13/10 Q1002 TEMPO 22020G35KT 3000 RA BKN010 BKN020

TAF LFOE 231400Z 2315/2415 22015G25KT 9999 BKN040 TEMPO 2319/2401 22020G35KT 3000 RA BKN010 BKN020 TEMPO 2411/2415 22020G35KT 3000 -SHRA SCT020CB PROB40 TEMPO 2414/2415 22020G40KT 2000 -TSRA SCT015CB

Orly

LFPO 232000Z 19010KT 9999 -RA NSC 13/09 Q1005 TEMPO 21020G30KT -RA BKN014 BKN020TCU

TAF LFPO 231700Z 2318/2424 21015G25KT 9999 BKN030 TEMPO 2318/2404 20020G30KT -RA BKN014 BKN020TCU PROB40 TEMPO 2322/2402 20020G40KT 3000 RA BKN012 BKN020CB BECMG 2404/2406 SCT025 TEMPO 2412/2424 23020G30KT 4000 -SHRA BKN020TCU PROB40 TEMPO 2415/2420 23020G40KT 2000 TSRA BKN020CB

Roissy

LFPG 232000Z AUTO 19016KT 9999 -RA FEW031 SCT047 BKN054 13/09 Q1004 TEMPO 3000 RA BKN012 SCT015TCU BECMG 21020G30KT

TAF LFPG 231700Z 2318/2424 21020G30KT 9999 BKN035 TX15/2318Z TN10/2406Z PROB40 TEMPO 2320/2404 3000 RA BKN012 SCT015TCU TEMPO 2322/2324 22025G40KT BECMG 2409/2411 SCT030TCU PROB40 TEMPO 2413/2421 3000 SHRA SCT020CB PROB30 TEMPO 2413/2418 TSRAGS

Abonnez-vous à notre Newsletter !

*Champs obligatoires

En vous abonnant, vous acceptez de recevoir des e-mails d'information de l'Aéroclub Renault.

Vous pourrez vous désinscrire à tout moment.

Voir notre page de politique de confidentialité

Share This